Regional Weather Roundup
Issued by NWS

Home | Current Version | Previous Version | Text Only | Print | Product List | Glossary On
Versions: 1 2 3 4 5 6 7 8 9 10 11 12 13 14 15 16 17 18 19 20 21 22 23 24 25 26 27 28 29 30 31 32 33 34 35 36 37 38 39 40 41 42 43 44 45 46 47 48 49 50
000
ASUS43 KLMK 260110
RWRKY
KENTUCKY REGIONAL WEATHER ROUNDUP
NATIONAL WEATHER SERVICE LOUISVILLE KY
800 PM EST SAT FEB 25 2017

NOTE "FAIR" INDICATES FEW OR NO CLOUDS BELOW 12,000 FEET
WITH NO SIGNIFICANT WEATHER AND/OR OBSTRUCTIONS TO VISIBILITY.

KYZ001>023-026-027-061>063-070>075-260200-
WESTERN AND SOUTH CENTRAL KENTUCKY

CITY           SKY/WX    TMP DP  RH WIND       PRES   REMARKS
PADUCAH        CLEAR     34  20  56 CALM      30.11R
HENDERSON      CLEAR     34  18  51 NW5       30.11R WCI  30
OWENSBORO      CLEAR     34  19  54 NW5       30.11S WCI  30
HOPKINSVILLE   CLEAR     37  18  45 NW5       30.11R WCI  34
BOWLING GREEN  CLEAR     38  19  46 NW3       30.10R
GLASGOW        CLEAR     34  20  56 CALM      30.09R
$$

KYZ024-025-028>034-038-045-046-053-260200-
NORTH CENTRAL KENTUCKY

CITY           SKY/WX    TMP DP  RH WIND       PRES   REMARKS
LOUISVILLE/SDF PTCLDY    36  15  42 W12       30.07R WCI  28
LOUISVILLE/LOU CLEAR     36  17  46 W12       30.08R WCI  28
FORT KNOX      CLEAR     31  18  57 W7        30.06R WCI  25
$$

KYZ035>037-039>044-047>052-055>060-089>105-260200-
NORTHEAST KENTUCKY

CITY           SKY/WX    TMP DP  RH WIND       PRES   REMARKS
LEXINGTON      CLOUDY    34  19  54 W7        30.04R WCI  28
COVINGTON      MOCLDY    32  17  54 W18       30.02R WCI  20
FRANKFORT      CLOUDY    35  18  49 W3        30.04R
$$

KYZ054-064>069-076>088-106>120-260200-
SOUTHEAST KENTUCKY

CITY           SKY/WX    TMP DP  RH WIND       PRES   REMARKS
JACKSON        CLEAR     33  19  56 W10       30.01R WCI  25
LONDON         CLEAR     34  18  52 W10       30.05R WCI  26
SOMERSET       CLEAR     32  19  59 NW3       30.08R
MIDDLESBORO    CLEAR     38  22  53 NW8       30.03R WCI  32
MONTICELLO     CLEAR     32  22  66 NW7       30.09R WCI  26
$$




USA.gov is the U.S. government's official web portal to all federal, state and local government web resources and services.